Flag for U.S.A. Weather past 2 weeks in Palo Alto, California, U.S.A.

Now
63 °F

Clear.


Feels Like: 63 °F
Forecast: 59 / 88 °F
Wind: No wind

Location: Moffett Field

Current Time: Aug 1, 2014 at 4:59:48 AM

Latest Report: Aug 1, 2014 at 3:56 AM


Visibility: 10 mi

Pressure: 29.91 "Hg

Humidity: 84%

Dew point: 58 °F

Location of Palo AltoLocation

Historic Weather in Palo Alto — Graph

°F

Palo Alto temperature yesterday

Maximum temperature yesterday: 77 °F (at 3:56 PM)
Minimum temperature yesterday: 63 °F (at 12:56 AM)
Average temperature yesterday: 68 °F

Past Weeks' High & Low Weather Summary

 TemperatureHumidityPressure
High93 °F (Jul 25, 2:56 PM)90% (Jul 24, 5:56 AM)30.15 "Hg (Jul 24, 5:56 AM)
Low61 °F (Jul 24, 5:56 AM)19% (Jul 25, 1:56 PM)29.83 "Hg (Jul 25, 4:56 PM)
Average70 °F69%29.99 "Hg
* Reported Jul 17 3:56 AM — Aug 1 3:56 AM, Palo Alto, Weather by CustomWeather, © 2014

Note: Actual official high and low records may vary slightly from our data, if they occured in-between our weather recording intervals... More about our weather records

Advertising

Palo Alto weather history for previous 24 hours

 ConditionsComfort  
Time TempWeatherWind HumidityBarometerVisibility
3:56 AM
Aug 1
63 °FClear.No wind84%29.91 "Hg10 mi
2:56 AM64 °FClear.No wind84%29.91 "Hg10 mi
1:56 AM64 °FClear.No wind84%29.92 "Hg10 mi
12:56 AM64 °FClear.No wind84%29.92 "Hg10 mi
11:56 PM
Jul 31
64 °FClear.No wind84%29.93 "Hg10 mi
10:56 PM65 °FClear.No wind81%29.93 "Hg10 mi
9:56 PM65 °FClear.5 mph85%29.93 "Hg10 mi
8:56 PM66 °FSunny.6 mph81%29.92 "Hg10 mi
7:56 PM69 °FSunny.7 mph76%29.91 "Hg10 mi
6:56 PM72 °FSunny.9 mph66%29.90 "Hg10 mi
5:56 PM76 °FSunny.10 mph56%29.90 "Hg10 mi
4:56 PM76 °FSunny.9 mph58%29.91 "Hg10 mi
3:56 PM77 °FSunny.13 mph56%29.92 "Hg10 mi
2:56 PM76 °FSunny.9 mph58%29.94 "Hg10 mi
1:56 PM75 °FSunny.12 mph60%29.96 "Hg10 mi
12:56 PM74 °FSunny.9 mph62%29.97 "Hg10 mi
11:56 AM71 °FSunny.7 mph66%29.98 "Hg10 mi
10:56 AM69 °FSunny.7 mph70%29.99 "Hg10 mi
10:03 AM66 °FPassing clouds.7 mph73%29.99 "Hg10 mi
9:56 AM68 °FPartly sunny.8 mph70%30.00 "Hg10 mi
8:56 AM64 °FOvercast.6 mph81%30.01 "Hg10 mi
7:56 AM64 °FLow clouds.7 mph84%29.99 "Hg10 mi
6:56 AM63 °FLow clouds.No wind87%29.98 "Hg9 mi
5:56 AM63 °FLow clouds.No wind87%29.98 "Hg10 mi
4:56 AM63 °FLow clouds.3 mph87%29.97 "Hg10 mi
Weather by CustomWeather, © 2014

See weather overviewHow to use our weather pages